TIME,DELAY(SENSOR),PRES,T(CTD),SAL,OXYGEN,RAWTEMP,T(OPTODE),TCPHASE,FLUOR,BETA(BETA700),BETA(BETA412),BETA(BETA440),CDOM,C(CSC),ED(ED411.90),ED(ED443.80),ED(ED489.40),ED(ED554.70),LU(LU412.20),LU(LU443.80),LU(LU489.40),LU(LU555.00),COMP,TILTX,TILTX(TILTY),CHECK
1347203656,5805,494.8599853515625000,17.7266006469726560,36.5054016113281250,233.2707977294922000,164.3731994628906200,17.7228202819824220,30.9402294158935550,50,101,97,80,65,13506,2146954194,2147512036,2147267666,2147461275,2147086052,2146950116,2147649508,2147125677,1982,-1,9,38595
1347203773,5807,483.7699890136719000,17.8027992248535160,36.5196990966796900,234.0704956054687500,161.8273925781250000,17.7996692657470700,30.8670005798339840,50,102,96,81,65,13504,2146953846,2147513197,2147267346,2147463049,2147082660,2146958290,2147649920,2147126884,2659,-1,8,37431
1347203888,5805,472.6400146484375000,17.8621006011962900,36.5308990478515600,235.1118927001953000,159.9358978271484400,17.8567695617675780,30.7912502288818360,51,102,95,79,67,13501,2146953810,2147511771,2147267593,2147459739,2147087478,2146956589,2147651538,2147126409,3079,-1,9,5793
1347203991,5806,462.4899902343750000,17.9046001434326170,36.5373001098632800,235.7975006103515600,158.4884948730468800,17.9004707336425780,30.7388801574707030,51,101,97,81,65,13504,2146952603,2147511652,2147266450,2147460544,2147088310,2146958189,2147651392,2147126116,3081,-1,9,22769
1347204108,5806,450.8399963378906000,17.9570007324218750,36.5461006164550800,235.8706054687500000,156.7628021240234400,17.9525794982910160,30.7123908996582030,50,100,97,80,65,13505,2146953325,2147514358,2147267949,2147459108,2147083776,2146956873,2147652178,2147127387,2755,-1,9,21058
1347204223,5805,439.4899902343750000,18.0013008117675780,36.5531997680664060,236.0906982421875000,155.0588073730468800,18.0040397644042970,30.6789093017578120,50,101,97,80,64,13505,2146950884,2147513517,2147266596,2147461476,2147086948,2146955565,2147645586,2147127158,2585,-1,9,27606
1347204338,5806,428.2099914550781000,18.0436992645263670,36.5583000183105500,236.1186981201172000,153.8892974853515600,18.0393600463867200,30.6620597839355470,50,100,96,80,65,13504,2146953746,2147512173,2147266742,2147460480,2147087296,2146958948,2147653257,2147124370,2204,-1,9,31494
1347204455,5804,416.7300109863281000,18.0902996063232420,36.5649986267089840,235.7120971679687500,152.3603057861328000,18.0855407714843750,30.6609306335449220,50,103,97,80,65,13504,2146951332,2147513234,2147265490,2147460553,2147083812,2146956416,2147646747,2147124653,2143,-1,9,28708
1347204570,5809,405.5400085449219000,18.1198005676269530,36.5676994323730500,235.3901062011718800,151.3459930419922000,18.1161804199218750,30.6628303527832030,50,101,97,81,65,13502,2146952932,2147513078,2147265234,2147457892,2147086985,2146951369,2147647414,2147125878,1903,-1,9,4327
1347204685,5804,394.4700012207031000,18.1613006591796880,36.5724983215332000,234.9149932861328000,149.9774932861328000,18.1575202941894530,30.6674804687500000,50,101,97,81,65,13500,2146955602,2147511213,2147267840,2147458669,2147088521,2146956187,2147649225,2147127762,1323,-1,9,58738
1347204802,5807,383.4500122070312500,18.2219009399414060,36.5783996582031250,234.2922058105468800,148.0765991210937500,18.2149505615234380,30.6722202301025400,50,104,97,81,65,13499,2146951945,2147511780,2147264658,2147459894,2147077010,2146960923,2147647387,2147123620,1147,-1,9,21538
1347204929,5805,371.8399963378906000,18.2803001403808600,36.5849990844726560,233.4739990234375000,146.0222930908203000,18.2770195007324220,30.6844291687011720,50,102,98,80,65,13499,2146952740,2147516717,2147266916,2147457508,2147086994,2146957513,2147650843,2147127725,1270,-1,9,49023
1347205046,5805,361.5700073242187500,18.3353996276855470,36.5903015136718750,232.6484069824218800,144.2494049072265600,18.3306007385253900,30.7008705139160160,51,105,98,81,66,13498,2146953993,2147509549,2147262774,2147460726,2147088283,2146960493,2147646445,2147122029,1300,-2,9,18687
1347205185,5803,349.9200134277344000,18.4087009429931640,36.5969009399414060,231.0444946289062500,141.6439971923828000,18.4093494415283200,30.7443199157714840,50,101,98,80,67,13500,2146955629,2147509595,2147267821,2147456512,2147083126,2146957485,2147648237,2147122313,1011,-1,9,39348
1347205324,5805,338.7200012207031000,18.4871997833251950,36.6038017272949200,229.9308929443359400,139.1361999511718800,18.4851608276367200,30.7655696868896500,51,103,97,81,66,13498,2146952329,2147514688,2147265216,2147454820,2147079414,2146963062,2147651520,2147123154,1087,-1,9,21151
1347205465,5804,327.6799926757812500,18.6152000427246100,36.6109008789062500,228.1616973876953000,134.8085937500000000,18.6160202026367200,30.7954902648925780,51,102,98,80,66,13496,2146955958,2147512493,2147265892,2147458304,2147082560,2146961289,2147650505,2147126080,1464,-1,9,55747
1347205604,5806,316.7999877929687500,18.7390995025634770,36.6160011291503900,227.2033996582031200,130.8484954833984400,18.7358093261718750,30.7902393341064450,51,101,96,80,66,13496,2146953380,2147510308,2147263917,2147456804,2147080173,2146964333,2147652662,2147127113,2187,-1,9,65339
1347205751,5803,304.1300048828125000,18.8640995025634770,36.5990982055664060,229.7041015625000000,126.5947036743164000,18.8645191192626950,30.6100006103515620,51,102,97,81,65,13499,2146953188,2147510820,2147264914,2147456283,2147084690,2146957778,2147656128,2147126098,3012,-1,9,36469
1347205866,5807,292.7799987792969000,19.0165004730224600,36.6038017272949200,232.6134033203125000,121.7987976074218800,19.0096893310546880,30.4046497344970700,51,105,97,83,65,13501,2146950390,2147510921,2147264356,2147457243,2147080064,2146958034,2147657590,2147126729,2648,-1,9,34338
1347205969,5804,282.3699951171875000,19.0716991424560550,36.5889015197753900,236.4718017578125000,119.6423034667968800,19.0749893188476560,30.1914291381835940,50,102,97,81,65,13500,2146952850,2147510985,2147262802,2147454281,2147080777,2146960859,2147655149,2147124205,2298,-1,9,894
1347206086,5802,270.5000000000000000,19.1730003356933600,36.5820999145507800,242.2577972412109400,116.5330963134765600,19.1691608428955080,29.8805198669433600,50,101,96,80,64,13500,2146954322,2147510683,2147263789,2147456457,2147082294,2146964992,2147665270,2147125458,2539,-1,9,1134
1347206189,5803,259.9700012207031000,19.2327003479003900,36.5878982543945300,243.5278015136718800,114.4918975830078100,19.2310009002685550,29.7959194183349600,50,100,98,81,64,13501,2146956361,2147512283,2147264009,2147454939,2147083273,2146968091,2147669814,2147126592,2983,-1,9,3354
1347206304,5803,248.3300018310547000,19.2844009399414060,36.5830993652343750,245.2552947998047000,112.6336975097656200,19.2873001098632800,29.6930694580078120,50,101,95,81,64,13497,2146954770,2147509248,2147263926,2147453577,2147081133,2146974912,2147684973,2147124982,3188,-1,9,5624
1347206422,5805,238.1300048828125000,19.3285999298095700,36.5788993835449200,247.2239074707031200,111.4293975830078100,19.3237991333007800,29.5889396667480470,50,101,96,81,63,13498,2146954953,2147512201,2147262701,2147453083,2147077504,2146977462,2147700251,2147126610,3531,-2,9,46261
1347206585,5805,227.1900024414062500,19.3700008392334000,36.5732002258300800,249.0832061767578000,109.8815994262695300,19.3707103729248050,29.4859504699707030,50,103,97,82,62,13494,2146955309,2147508032,2147265819,2147449142,2147083602,2146986733,2147713755,2147128448,230,-1,9,63360
1347206740,5805,215.6900024414062500,19.4606990814209000,36.5828018188476560,249.4548034667968800,107.1296005249023400,19.4541301727294920,29.4338798522949220,52,103,98,81,63,13495,2146955108,2147515913,2147263862,2147452169,2147084050,2146996187,2147740781,2147130240,3493,-1,9,12442
1347206867,5803,204.7299957275390600,19.5331001281738280,36.5946998596191400,248.5583038330078000,104.6412963867187500,19.5295791625976560,29.4414806365966800,56,103,98,80,64,13494,2146955355,2147511826,2147264804,2147451794,2147082066,2147016557,2147769444,2147131584,3359,-1,9,25664
1347206958,5808,196.8999938964843800,19.5914001464843750,36.5956993103027340,246.5632019042968800,102.5782012939453100,19.5921592712402340,29.5040302276611330,56,103,97,82,63,13492,2146953746,2147516224,2147270537,2147450514,2147083382,2147020763,2147801810,2147131346,3576,-1,9,42241
1347207033,5807,190.6600036621093800,19.6732997894287100,36.5990982055664060,247.5440063476562500,99.9419784545898400,19.6721401214599600,29.4261608123779300,60,106,97,81,63,13483,2146953069,2147513993,2147270162,2147451739,2147086491,2147032512,2147828790,2147132544,457,-1,9,39924
1347207088,5806,186.3099975585937500,19.7327995300292970,36.5983009338378900,249.5854034423828000,98.1098632812500000,19.7277297973632800,29.3118000030517580,62,106,97,83,64,13485,2146954651,2147514404,2147273993,2147448512,2147094272,2147053046,2147859355,2147136448,994,-1,9,21889
1347207143,5805,182.1399993896484400,19.7667007446289060,36.6035995483398440,250.3719024658203000,96.8349761962890600,19.7664203643798830,29.2607994079589840,64,111,99,81,64,13480,2146954944,2147513773,2147271259,2147451730,2147097261,2147064521,2147885760,2147136164,1072,-1,9,63219
1347207198,5802,177.9199981689453000,19.9085998535156250,36.6101989746093750,251.2534027099609400,92.0974731445312500,19.9102592468261720,29.1615791320800780,63,107,97,81,64,13482,2146953444,2147512027,2147274633,2147449554,2147093494,2147075437,2147922669,2147139556,1251,-1,9,1453
1347207253,5805,173.8200073242187500,20.0769996643066400,36.6304016113281250,249.3002014160156200,87.2363433837890600,20.0579204559326170,29.1850700378417970,66,108,97,82,65,13478,2146951003,2147515017,2147277348,2147450761,2147101604,2147098240,2147954806,2147144201,1589,-1,9,9451
1347207308,5803,169.8099975585937500,20.1737995147705080,36.6375999450683600,247.6766052246093800,83.3834762573242200,20.1750202178955080,29.2076492309570300,68,106,98,81,64,13479,2146950272,2147516955,2147274724,2147448585,2147105408,2147122486,2147994011,2147143168,2021,-1,9,25262
1347207387,5804,164.8300018310547000,20.3087997436523440,36.6376991271972660,247.5498046875000000,79.2304534912109400,20.3013000488281250,29.1601505279541000,74,110,100,81,64,13471,2146952201,2147516973,2147277174,2147448484,2147110546,2147150134,2148061238,2147151314,2347,-2,9,34031
1347207454,5806,161.4199981689453000,20.3815994262695300,36.6511001586914060,246.9069061279297000,76.8393173217773400,20.3740406036376950,29.1582298278808600,78,110,98,80,64,13471,2146954349,2147518656,2147279030,2147446564,2147116434,2147179254,2148112566,2147154806,2174,-2,9,16818
1347207533,5808,157.4199981689453000,20.5137004852294920,36.6703987121582000,245.2483062744140600,72.4734725952148400,20.5069007873535160,29.1765708923339840,81,110,98,80,64,13466,2146952640,2147522368,2147284763,2147449106,2147124955,2147217618,2148180818,2147157430,1782,-1,9,42314
1347207612,5806,153.3200073242187500,20.6821002960205080,36.6955986022949200,239.5321960449218800,66.7190628051757800,20.6821308135986330,29.3624191284179700,84,111,99,81,64,13467,2146954322,2147522340,2147285513,2147447780,2147132608,2147257024,2148255460,2147163090,1901,-1,9,41832
1347207693,5804,149.1900024414062500,20.7506999969482420,36.6804008483886700,238.4593048095703000,64.6268997192382800,20.7458801269531250,29.3851203918457030,88,110,98,81,65,13461,2146957613,2147524544,2147291657,2147446107,2147149056,2147317001,2148355501,2147171337,2577,-1,9,54583
1347207772,5804,145.4900054931640600,20.8904991149902340,36.6950988769531250,239.9575958251953000,60.3733711242675800,20.8755302429199220,29.2617893218994140,92,113,99,80,65,13459,2146955812,2147527945,2147295478,2147447488,2147160694,2147364324,2148442779,2147173613,2523,-1,9,8838
1347207863,5804,141.8999938964843800,20.9955997467041000,36.6734008789062500,243.4100952148437500,57.0543289184570300,20.9767494201660160,29.0628299713134770,94,114,100,82,64,13458,2146955209,2147526180,2147299264,2147445705,2147180845,2147427785,2148555053,2147182628,1855,-2,10,26927
1347207980,5809,138.2500000000000000,21.1051006317138670,36.6772003173828100,245.8013000488281200,53.1223907470703100,21.0967292785644530,28.9059600830078120,97,112,98,83,64,13455,2146956260,2147529490,2147306605,2147445568,2147199954,2147500388,2148673453,2147191058,1766,-2,9,48727
1347208131,5804,134.4100036621093800,21.2427005767822270,36.6837005615234400,247.6244964599609400,48.6812095642089840,21.2323207855224600,28.7691593170166000,100,114,99,82,65,13452,2146957997,2147535808,2147315693,2147443958,2147225965,2147574875,2148791378,2147200109,2444,-1,9,52028
1347208325,5807,130.0899963378906200,21.4213008880615230,36.6894989013671900,247.0305023193359400,42.7655906677246100,21.4130802154541000,28.7208309173584000,96,113,99,83,64,13453,2146961261,2147539611,2147322468,2147443638,2147278793,2147726683,2149033627,2147216713,2156,-1,9,30787
1347208440,5806,125.8499984741211000,21.6072006225585940,36.6850013732910160,247.9763946533203000,36.8624687194824200,21.5936107635498050,28.6048908233642580,95,113,98,83,64,13449,2146963876,2147546413,2147338697,2147441947,2147344786,2147910619,2149298432,2147238756,3066,-2,9,63763
1347208567,5808,121.9700012207031200,21.7779998779296880,36.6873016357421900,248.4436950683593800,31.2166309356689450,21.7664299011230470,28.5137100219726560,100,113,100,81,64,13439,2146968795,2147560210,2147349696,2147443053,2147421513,2148093266,2149566153,2147265325,2760,-2,9,7920
1347208682,5805,117.8499984741211000,21.9757003784179700,36.6859016418457000,247.5758972167968800,24.7867603302001950,21.9634494781494140,28.4711704254150400,104,113,99,83,64,13439,2146971876,2147566820,2147368201,2147444809,2147543917,2148416402,2150016000,2147303881,1873,-1,9,32255
1347208773,5806,113.5699996948242200,22.1023006439209000,36.6930999755859400,246.1723937988281200,20.4326095581054700,22.0969791412353500,28.4782009124755860,120,119,99,82,63,13413,2146979510,2147581321,2147392329,2147439798,2147687579,2148729956,2150431414,2147340717,2866,-2,9,33379
1347208864,5805,109.7500000000000000,22.3241004943847660,36.6815986633300800,246.8509063720703000,14.7707395553588870,22.2707691192626950,28.3777008056640620,116,118,100,82,64,13414,2146986816,2147601709,2147432036,2147447369,2147866880,2149088676,2150934482,2147387867,158,-1,9,36503
1347209005,5805,106.7500000000000000,22.5867996215820300,36.6772994995117200,247.4416046142578000,5.0657901763916020,22.5690498352050780,28.2311191558837900,113,117,100,82,63,13415,2146994432,2147616045,2147443565,2147446043,2148043913,2149458157,2151419483,2147431350,1457,-2,9,38962
1347209335,5807,101.9700012207031200,22.8493003845214840,36.6629981994628900,248.1604003906250000,-4.3684058189392090,22.8595294952392580,28.0828895568847660,109,119,100,83,62,13409,2147021421,2147670948,2147539227,2147447405,2148633600,2150602322,2152746029,2147559332,608,-2,9,15983
1347209426,5802,99.1299972534179700,23.1315002441406250,36.6377983093261700,248.7250976562500000,-12.2852001190185550,23.1036796569824220,27.9605808258056640,114,117,100,83,61,13393,2147036845,2147691529,2147541549,2147447131,2148946560,2151195254,2153463131,2147623945,2825,-2,9,35206
1347209529,5804,97.5800018310546900,23.1777992248535160,36.6265983581543000,249.4642944335937500,-14.2034702301025390,23.1629009246826170,27.9050197601318360,121,116,100,85,63,13377,2147043145,2147702153,2147556205,2147446912,2149094528,2151445641,2153737435,2147653211,2120,-2,9,46973
1347209632,5809,94.8600006103515600,23.3640995025634770,36.6032981872558600,248.4210968017578000,-20.0272197723388670,23.3428096771240230,27.8782405853271500,141,123,100,83,61,13368,2147068553,2147734582,2147599926,2147448512,2149564480,2152254034,2154632466,2147743588,1929,-2,9,61530
1347209687,5807,92.7799987792968800,23.4951992034912100,36.5985984802246100,245.0198974609375000,-24.1664791107177730,23.4708099365234380,27.9745197296142580,167,130,99,85,63,13346,2147076873,2147753270,2147633362,2147449398,2149871954,2152736950,2155180251,2147802386,1714,-1,10,28314
1347209742,5805,91.2500000000000000,23.5219001770019530,36.5896987915039060,242.5738067626953000,-25.5498409271240230,23.5136108398437500,28.0648593902587900,175,132,100,83,63,13360,2147088667,2147771556,2147657682,2147449069,2150124187,2153113508,2155624731,2147852324,1686,-1,10,30939
1347209845,5808,89.6999969482421900,23.6544990539550780,36.5873985290527340,239.2899017333984400,-29.3735904693603500,23.6319904327392580,28.1640491485595700,184,130,101,83,64,13336,2147100470,2147779401,2147663862,2147450340,2150247981,2153277568,2155742573,2147869156,2696,-1,10,19670
1347209972,5804,87.0999984741211000,23.9335994720459000,36.5789985656738300,234.7021026611328000,-38.5301589965820300,23.9158496856689450,28.2583293914794920,203,136,104,84,63,13312,2147134061,2147830070,2147730925,2147454061,2151047158,2154482340,2157153453,2148033453,2045,-1,9,52457
1347210039,5806,84.7200012207031200,24.1028995513916000,36.5736999511718750,233.3292999267578000,-43.5983009338378900,24.0732002258300780,28.2583999633789060,208,140,102,85,65,13306,2147163108,2147871488,2147787611,2147457225,2151643282,2155329755,2158072155,2148148845,2132,-2,10,11790
1347210094,5804,82.9300003051757800,24.2199001312255860,36.5560989379882800,232.7855987548828000,-47.3002090454101560,24.1882495880126950,28.2374706268310550,214,139,103,85,65,13273,2147183926,2147905965,2147829339,2147458550,2152073810,2156009993,2158856246,2148241216,2223,-2,10,40764
1347210161,5806,81.6500015258789000,24.3330993652343750,36.5574989318847660,233.2391967773437500,-51.0755805969238300,24.3056793212890620,28.1697292327880860,182,137,102,84,65,13299,2147201993,2147928557,2147859355,2147461549,2152279140,2156324900,2159237787,2148294893,2686,-2,9,46140
1347210311,5807,79.3899993896484400,24.5921001434326170,36.4987983703613300,238.3211975097656200,-59.3661918640136700,24.5638904571533200,27.8367500305175780,106,126,101,85,61,13358,2147274148,2148046738,2148002075,2147466285,2153625581,2158456978,2161433965,2148546322,1728,-1,10,19466
1347210426,5807,77.4800033569336000,24.7099990844726560,36.5003013610839840,243.4738006591797000,-63.0779304504394500,24.6796607971191400,27.5636501312255860,101,128,102,84,62,13369,2147307766,2148093321,2148023753,2147469211,2154193408,2159303350,2162089334,2148622646,2768,-1,9,19776
1347210552,5805,75.0599975585937500,24.8493995666503900,36.4925003051757800,240.0973052978515600,-67.9589233398437500,24.8320503234863280,27.6521797180175780,97,123,99,84,61,13365,2147397065,2148235849,2148231149,2147481188,2156132370,2162217618,2165108818,2148960429,1410,-2,9,14809
1347210619,5807,73.1699981689453100,25.0002002716064450,36.4784011840820300,237.0518035888672000,-72.8442535400390600,24.9847393035888670,27.7278308868408200,92,125,101,86,62,13375,2147470400,2148355364,2148402249,2147498560,2157472018,2164240621,2166856393,2149158281,1040,-2,10,57472
1347210722,5804,71.6699981689453100,25.0205993652343750,36.4768981933593750,238.2946014404297000,-73.9549789428711000,25.0194892883300780,27.6585407257080080,86,127,101,85,60,13368,2147568877,2148485266,2148555565,2147508699,2159189577,2166741376,2168880155,2149394870,604,-2,9,50782
1347210860,5805,69.1600036621093800,25.3675003051757800,36.4240989685058600,236.0142974853515600,-83.6746826171875000,25.3239097595214840,27.6413192749023440,81,130,101,86,61,13366,2147733504,2148713014,2148704960,2147513938,2162657142,2171720356,2172839177,2149786688,250,-1,9,30158
1347210939,5804,67.1900024414062500,25.6291999816894530,36.4056015014648440,233.7722015380859400,-92.3872985839843800,25.5974197387695300,27.6354293823242200,82,130,102,85,60,13359,2147864758,2148881124,2148893897,2147532699,2165287789,2175330678,2175913536,2150151076,396,-2,9,9663
1347211030,5806,65.6600036621093800,25.7793998718261720,36.4160995483398440,232.1121063232422000,-97.2331771850586000,25.7498092651367200,27.6516990661621100,81,129,102,85,60,13354,2147913846,2148912777,2148796352,2147512914,2166712320,2177312228,2177609097,2150332333,2756,-2,10,49637
1347211216,5804,63.7200012207031250,26.0445003509521500,36.3560981750488300,227.7649993896484400,-106.0774002075195300,26.0284194946289060,27.7434406280517580,78,126,101,86,61,13364,2148054829,2149111963,2148998848,2147521572,2169906724,2181794057,2181422692,2150766701,2082,-1,9,5300
1347211510,5806,61.0900001525878900,26.3409996032714840,36.3008995056152340,228.4161071777343800,-115.4201965332031200,26.3234596252441400,27.5981292724609380,74,127,102,86,61,13363,2148402944,2149533970,2149332635,2147547602,2176378843,2190218294,2187942043,2151550281,2901,-1,9,32649
1347211625,5805,59.9300003051757800,26.6084003448486330,36.2929000854492200,231.6372070312500000,-123.6663970947265600,26.5844802856445300,27.3489608764648440,72,128,102,84,59,13347,2148599634,2149752749,2149522523,2147557842,2179848978,2194823122,2191404123,2151895241,2840,-2,9,35147
1347211847,5808,56.8199996948242200,26.7556991577148440,36.2318000793457000,235.8213958740234400,-129.2843933105468800,26.7626590728759770,27.0922393798828120,69,128,103,85,61,13363,2149255990,2150520301,2150372928,2147665170,2191447588,2207682642,2200442953,2153018432,948,-1,9,17070
1347211902,5805,55.3899993896484400,26.9186992645263670,36.2169990539550800,235.7064056396484400,-133.4055023193359400,26.8935394287109380,27.0473308563232420,68,133,104,86,57,13362,2148318610,2149149769,2148765284,2147525494,2174862637,2182266870,2176132489,2150373220,1152,-1,10,42455
1347212044,5805,54.4900016784668000,26.9916992187500000,36.2095985412597660,236.7644958496093800,-136.8329010009765600,27.0025005340576170,26.9586296081542970,71,129,104,87,62,13351,2149500406,2150765540,2150519222,2147675072,2196392438,2213053275,2204272064,2153654756,1097,-1,9,63111
1347212160,5809,52.6100006103515600,27.1177005767822270,36.1883010864257800,236.9595031738281200,-140.1098937988281200,27.1067905426025400,26.9102306365966800,66,129,102,87,59,13348,2149807296,2151031826,2150533248,2147638134,2203825846,2220804352,2209468928,2154415780,1534,-1,9,33844
1347212217,5806,50.8400001525878900,27.2632007598876950,36.1768989562988300,237.0885925292968800,-144.4234008789062500,27.2442092895507800,26.8521995544433600,66,128,104,88,59,13351,2150167826,2151411053,2150807597,2147657024,2211078985,2229189760,2215618550,2155230857,1649,-1,10,50546
1347212310,5805,48.8300018310546900,27.4001998901367200,36.1525993347168000,238.1009063720703000,-149.2005004882812500,27.3966007232666000,26.7499103546142580,66,128,102,86,60,13356,2150530569,2151807213,2151152987,2147695396,2217387437,2236017773,2220558985,2155939702,1509,-1,10,58319
1347212475,5802,46.9500007629394500,27.9256992340087900,36.1514015197753900,237.6206054687500000,-165.1992034912109400,27.9085502624511720,26.5771007537841800,63,129,103,86,61,13346,2150985453,2152138102,2151354249,2147759341,2224129929,2241948818,2223109613,2156438893,238,-1,9,54155
1347212784,5806,44.5299987792968750,28.0233001708984380,36.1143989562988300,238.0773925781250000,-169.2359924316406200,28.0381202697753900,26.5082798004150400,62,126,102,86,58,13342,2151963611,2153106797,2152131702,2147855314,2242321956,2259777142,2235139062,2158394514,1256,-2,9,36937
1347212841,5803,42.7000007629394500,28.1404991149902340,36.0357017517089840,236.9790954589843800,-172.9147949218750000,28.1563396453857420,26.5116996765136720,60,125,106,86,57,13357,2152493302,2153599542,2152516114,2147927963,2252244571,2269318729,2241499529,2159390272,1204,-1,10,6860
1347213041,5803,40.7999992370605500,28.2089996337890620,36.0214996337890600,235.6445007324218800,-175.1255950927734400,28.2274494171142580,26.5433998107910160,60,122,101,85,56,13369,2153219721,2154233243,2152958976,2148003373,2267935963,2284600000,2251285193,2161058368,1210,0,9,58264
1347213110,5803,38.8600006103515600,28.3311996459960940,36.0018005371093750,233.7798004150390600,-178.6194000244140600,28.3399295806884770,26.5834102630615230,58,117,104,87,59,13374,2154009353,2154890669,2153129078,2147889682,2285649938,2301361270,2261336786,2162458468,1594,-2,9,45245